sat.trackr.live / text

‹ back to catalog

STARLINK-31797

NORAD 59634 · 2024-082D

PAYLOAD ACTIVE UNKNOWN

§ Identity

Operator
Country
US
Launch date
2024-05-03
Launch site
AFETR
Launch vehicle
Mass (kg)
RCS (m²)

Purposes: comms

External: N2YO · Heavens-Above · Gunter

§ Orbital elements

Epoch: 2026-09-21T22:03:58.409856Z

Period
94.27 min
Inclination
43.0018°
Eccentricity
0.0001384
Mean motion
15.27582084 rev/d
Perigee alt
482.1 km
Apogee alt
484.0 km
Semi-major
6,861.2 km
B*
4.1836e-5
RAAN
111.5261°
Arg perigee
269.8357°
Mean anomaly
90.2336°
Rev number
13,486

§ Raw data

STARLINK-317971 59634U 24082D   26264.91942604  .00000889  00000+0  41836-4 0  99982 59634  43.0018 111.5261 0001384 269.8357  90.2336 15.27582084134865

JSON: /api/v1/satellites/59634 · /tle

For live sub-satellite position, see the globe view (requires WebGL).

§ Visibility from observer

Set your observer location to see the next 7 days of passes ≥ 10°. The values pass through the URL so the page stays shareable.

No JS? Fill the form by hand. The geolocation button needs JavaScript.